Location: Unspecified
(41.8160°N, 0.0000°E)
Time: 07:24:11
(UTC+00:00)

N. Korean satellite - Visible Passes

Search period start: 16 October 2019 00:00
Search period end: 26 October 2019 00:00
Orbit: 455 x 508 km, 97.2° (Epoch: 15 October)

Date Brightness Start Highest point End Pass type
(mag) Time Alt. Az. Time Alt. Az. Time Alt. Az.
16 Oct 10.1 04:59:09 10° ENE 05:01:16 15° E 05:03:24 10° SE visible
17 Oct 10.5 18:17:36 10° WSW 18:18:39 11° W 18:19:42 10° WNW visible
18 Oct 7.7 05:40:45 10° NNE 05:44:15 51° E 05:47:49 10° S visible
18 Oct 9.4 17:50:24 10° SSW 17:53:10 23° W 17:55:57 10° NW visible
19 Oct 9.3 05:15:53 10° NE 05:18:53 24° E 05:21:55 10° SSE visible
20 Oct 10.3 04:51:53 10° ENE 04:53:25 12° E 04:54:58 10° ESE visible
21 Oct 10.1 18:08:54 10° SW 18:10:45 14° W 18:12:38 10° WNW visible
22 Oct 8.2 05:32:59 10° NNE 05:36:26 40° E 05:39:55 10° S visible
22 Oct 8.9 17:42:17 10° SSW 17:45:17 28° W 17:48:20 10° NW visible
23 Oct 9.7 05:08:17 10° NE 05:11:02 20° E 05:13:48 10° SE visible
25 Oct 7.0 05:50:17 10° NNE 05:53:56 71° ESE 05:57:37 10° S visible
25 Oct 9.9 18:00:28 10° SW 18:02:50 17° W 18:05:13 10° NW visible
